Emporia, KS

9:13 AM CST on February 25, 2017 (GMT -0600)
Emporia Municipal

Weather History for KEMP - May, 2013

Change the Weather History Date:

Thursday, May 2, 2013

  Actual Average Record
Temperature  
Mean Temperature 38 °F 61 °F  
Max Temperature 41 °F 72 °F 82 °F (2012)
Min Temperature 34 °F 50 °F 32 °F (2005)
Degree Days  
Heating Degree Days 27 5  
Month to date heating degree days 32 5  
Since 1 July heating degree days 4871 4734  
Cooling Degree Days 0 1  
Month to date cooling degree days 0 1  
Year to date cooling degree days 14 24  
Moisture  
Dew Point 33 °F    
Average Humidity 81    
Maximum Humidity 96    
Minimum Humidity 65    
Precipitation  
Precipitation 1.15 in 0.17 in 1.15 in (2013)
Month to date precipitation 1.15 0.17  
Year to date precipitation 9.25 7.94  
Sea Level Pressure  
Sea Level Pressure 30.39 in    
Wind  
Wind Speed 16 mph (North)    
Max Wind Speed 30 mph    
Max Gust Speed 43 mph    
Visibility 7 miles    
Events Rain , Snow    
T = Trace of Precipitation, MM = Missing Value Source: NWS Daily Summary

Daily Weather History Graph

Daily Weather History Graph

Search for Another Location

Airport or City:

Trip Planner

Search our weather history database for the weather conditions in past years. The results will help you decide how hot, cold, wet, or windy it might be!

Date:

Astronomy

May. 02, 2013 Rise Set
Actual Time 6:26 AM CDT 8:17 PM CDT
Civil Twilight 5:57 AM CDT 8:46 PM CDT
Nautical Twilight 5:23 AM CDT 9:20 PM CDT
Astronomical Twilight 4:46 AM CDT 9:58 PM CDT
Moon 2:08 AM CDT (5/2) 1:13 PM CDT (5/2)
Length of Visible Light 14h 48m
Length of Day
13h 50m
Waning Gibbous, 47% of the Moon is Illuminated
May 2
Waning Gibbous
May 9
New
May 17
First Quarter
May 24
Full
May 31
Last Quarter

Hourly Weather History & Observations

Time (CDT) Temp. Windchill Dew Point Humidity Pressure Visibility Wind Dir Wind Speed Gust Speed Precip Events Conditions
12:53 AM 39.9 °F 30.8 °F 35.1 °F 83% 30.25 in 10.0 mi North 18.4 mph 28.8 mph 0.00 in   Overcast
1:38 AM 41.0 °F 32.8 °F 35.6 °F 81% 30.26 in 10.0 mi North 16.1 mph 29.9 mph 0.00 in Rain Light Rain
1:53 AM 39.9 °F 31.1 °F 37.0 °F 89% 30.26 in 10.0 mi North 17.3 mph 27.6 mph 0.00 in   Overcast
2:53 AM 39.9 °F 31.1 °F 36.0 °F 86% 30.27 in 10.0 mi North 17.3 mph 32.2 mph N/A   Overcast
3:35 AM 39.2 °F 30.2 °F 35.6 °F 87% 30.25 in 5.0 mi NNE 17.3 mph 32.2 mph 0.01 in Rain Rain
3:53 AM 37.9 °F 28.2 °F 36.0 °F 93% 30.27 in 3.0 mi NNE 18.4 mph 27.6 mph 0.07 in Rain Heavy Rain
4:53 AM 37.9 °F 29.6 °F 36.0 °F 93% 30.32 in 3.0 mi North 13.8 mph - 0.28 in Rain Heavy Rain
5:05 AM 37.4 °F 29.3 °F 35.6 °F 93% 30.31 in 2.5 mi North 12.7 mph 21.9 mph 0.10 in Rain Heavy Rain
5:19 AM 37.4 °F 28.2 °F 35.6 °F 93% 30.31 in 4.0 mi North 16.1 mph 27.6 mph 0.17 in Rain Rain
5:27 AM 37.4 °F 27.2 °F 35.6 °F 93% 30.31 in 2.5 mi North 19.6 mph 26.5 mph 0.24 in Rain Heavy Rain
5:35 AM 37.4 °F 27.2 °F 35.6 °F 93% 30.30 in 3.0 mi North 19.6 mph 27.6 mph 0.29 in Rain Heavy Rain
5:53 AM 37.9 °F 30.5 °F 36.0 °F 93% 30.36 in 5.0 mi NW 11.5 mph 28.8 mph 0.35 in Rain Light Rain
6:53 AM 37.0 °F 26.2 °F 34.0 °F 89% 30.36 in 10.0 mi North 21.9 mph 34.5 mph 0.03 in Rain Light Rain
7:53 AM 37.0 °F 25.4 °F 34.0 °F 89% 30.39 in 2.5 mi North 25.3 mph 35.7 mph 0.06 in Rain Heavy Rain
8:22 AM 37.4 °F 27.8 °F 33.8 °F 87% 30.41 in 3.0 mi North 17.3 mph 33.4 mph 0.10 in Rain Rain
8:53 AM 36.0 °F 24.2 °F 33.1 °F 89% 30.43 in 5.0 mi North 24.2 mph 35.7 mph 0.16 in Rain Light Rain
9:53 AM 35.1 °F 23.3 °F 32.0 °F 89% 30.45 in 7.0 mi North 23.0 mph 32.2 mph 0.05 in Rain Light Rain
10:53 AM 34.0 °F 23.8 °F 32.0 °F 92% 30.47 in 6.0 mi NNW 16.1 mph 23.0 mph 0.06 in Rain Light Rain
11:15 AM 33.8 °F 23.5 °F 32.0 °F 93% 30.42 in 2.0 mi North 16.1 mph 27.6 mph 0.04 in Snow Light Snow
11:26 AM 33.8 °F 22.2 °F 32.0 °F 93% 30.42 in 5.0 mi North 20.7 mph 28.8 mph N/A Rain Light Rain
11:53 AM 35.1 °F 23.3 °F 32.0 °F 89% 30.46 in 10.0 mi North 23.0 mph 42.6 mph 0.05 in Rain Light Rain
12:53 PM 36.0 °F 26.7 °F 34.0 °F 93% 30.46 in 8.0 mi North 15.0 mph 23.0 mph 0.00 in Rain Light Rain
1:14 PM 37.4 °F 27.2 °F 33.8 °F 87% 30.44 in 6.0 mi North 19.6 mph 34.5 mph 0.01 in Snow Light Snow
1:43 PM 37.4 °F 27.2 °F 33.8 °F 87% 30.43 in 7.0 mi North 19.6 mph 27.6 mph 0.01 in Rain Light Rain
1:53 PM 37.0 °F 27.4 °F 34.0 °F 89% 30.48 in 5.0 mi North 17.3 mph 25.3 mph 0.02 in Rain Light Rain
2:11 PM 37.4 °F 27.8 °F 33.8 °F 87% 30.44 in 6.0 mi North 17.3 mph 28.8 mph 0.00 in Snow Light Snow
2:53 PM 37.9 °F 27.9 °F 33.1 °F 83% 30.46 in 10.0 mi North 19.6 mph 24.2 mph 0.01 in Rain Light Rain
3:53 PM 39.0 °F 28.5 °F 30.9 °F 73% 30.46 in 9.0 mi North 23.0 mph 35.7 mph 0.01 in Rain Light Rain
4:02 PM 39.2 °F 29.6 °F 32.0 °F 75% 30.42 in 10.0 mi North 19.6 mph 32.2 mph 0.00 in Rain Light Rain
4:29 PM 39.2 °F 28.5 °F 30.2 °F 70% 30.42 in 10.0 mi North 24.2 mph 36.8 mph 0.00 in Rain Light Rain
4:53 PM 39.0 °F 29.3 °F 28.9 °F 67% 30.45 in 10.0 mi NNE 19.6 mph 28.8 mph 0.00 in   Overcast
5:53 PM 41.0 °F 31.6 °F 30.0 °F 65% 30.44 in 10.0 mi North 20.7 mph 28.8 mph N/A   Overcast
6:53 PM 41.0 °F 31.1 °F 30.0 °F 65% 30.44 in 10.0 mi North 23.0 mph 32.2 mph N/A   Overcast
7:53 PM 41.0 °F 33.9 °F 30.0 °F 65% 30.45 in 10.0 mi North 12.7 mph 19.6 mph N/A   Overcast
8:53 PM 37.9 °F 30.9 °F 28.9 °F 70% 30.44 in 10.0 mi NNE 10.4 mph - N/A   Overcast
9:53 PM 36.0 °F - 30.0 °F 79% 30.43 in 10.0 mi Calm Calm - N/A   Overcast
10:53 PM 36.0 °F 33.3 °F 32.0 °F 86% 30.42 in 10.0 mi NW 3.5 mph - N/A   Overcast
11:53 PM 35.1 °F 31.0 °F 30.0 °F 82% 30.39 in 10.0 mi NW 4.6 mph - N/A   Mostly Cloudy